KD9LKD-13 Weather Reports


Display with metric or nautical units.
time (UTC)temp
F
wind
direction
speed
MPH
gust
MPH
rain 1hr
in
rain 24hr
in
rain mn
in
humidity
%
barometer
mb
20260502190007 47 266 3.0 13.0 0.00 0.00 0.00 47 1016.9
20260502184514 47 310 4.0 10.0 0.00 0.00 0.00 44 1016.9
20260502183016 47 259 3.0 8.0 0.00 0.00 0.00 44 1016.9
20260502181503 47 302 2.0 6.0 0.00 0.00 0.00 45 1017.2
20260502163014 45 309 2.0 7.0 0.00 0.00 0.00 49 1017.9
20260502161517 46 360 3.0 11.0 0.00 0.00 0.00 47 1017.9
20260502151513 42 303 1.0 10.0 0.00 0.00 0.00 53 1017.9
20260502123020 38 306 2.0 9.0 0.00 0.00 0.00 68 1018.0
20260502121527 37 360 5.0 10.0 0.00 0.00 0.00 69 1017.9
20260502114515 36 350 2.0 4.0 0.00 0.00 0.00 71 1017.6
20260502113020 35 304 2.0 4.0 0.00 0.00 0.00 74 1017.5
20260502111523 33 319 0.0 3.0 0.00 0.00 0.00 75 1017.4
20260502110026 33 329 1.0 4.0 0.00 0.00 0.00 75 1017.4
20260502104512 33 13 0.0 3.0 0.00 0.00 0.00 75 1017.3
20260502103017 33 325 0.0 3.0 0.00 0.00 0.00 74 1017.3
20260502091518 34 336 0.0 3.0 0.00 0.00 0.00 71 1016.8
20260502071511 39 306 1.0 3.0 0.00 0.00 0.00 63 1016.3
20260502070020 39 5 4.0 8.0 0.00 0.00 0.00 61 1016.4
20260502064522 39 331 0.0 3.0 0.00 0.00 0.00 64 1016.6
20260502063006 39 340 0.0 3.0 0.00 0.00 0.00 64 1016.6
20260502061508 39 355 2.0 7.0 0.00 0.00 0.00 62 1016.7
20260502060013 40 327 0.0 5.0 0.00 0.00 0.00 63 1016.8
20260502054518 40 9 3.0 5.0 0.00 0.00 0.00 62 1016.8
20260502053025 40 5 3.0 7.0 0.00 0.00 0.00 63 1016.8
20260502051519 40 360 1.0 10.0 0.00 0.00 0.00 63 1016.9
20260502050011 40 16 4.0 9.0 0.00 0.00 0.00 63 1016.8
20260502044518 40 338 0.0 3.0 0.00 0.00 0.00 68 1016.7
20260502043022 40 11 2.0 5.0 0.00 0.00 0.00 65 1016.5
20260502041523 40 17 2.0 8.0 0.00 0.00 0.00 66 1016.4
20260502040009 40 5 3.0 11.0 0.00 0.00 0.00 66 1016.3
20260502034514 40 29 3.0 9.0 0.00 0.00 0.00 70 1016.1
20260502033018 39 282 0.0 3.0 0.00 0.00 0.00 72 1016.1
20260502031523 40 255 2.0 8.0 0.00 0.00 0.00 72 1016.0
20260502030026 40 271 0.0 0.0 0.00 0.00 0.00 72 1015.9
20260502023016 41 276 0.0 5.0 0.00 0.00 0.00 67 1016.1
20260502021520 41 355 1.0 6.0 0.00 0.00 0.00 67 1016.0
20260502020024 41 322 1.0 4.0 0.00 0.00 0.00 68 1015.9
20260502014533 42 303 0.0 6.0 0.00 0.00 0.00 67 1015.8
20260502013014 42 325 2.0 7.0 0.00 0.00 0.00 67 1015.7
20260502011519 42 340 0.0 8.0 0.00 0.00 0.00 66 1015.5
20260502010022 42 291 0.0 8.0 0.00 0.00 0.00 67 1015.4
20260502003029 42 338 0.0 4.0 0.00 0.00 0.00 67 1015.2
20260502001515 43 335 1.0 4.0 0.00 0.00 0.00 66 1015.2
20260501234525 43 57 1.0 5.0 0.00 0.00 0.00 64 1014.9
20260501233026 43 293 0.0 5.0 0.00 0.00 0.00 66 1014.7
20260501231503 44 355 3.0 8.0 0.00 0.00 0.00 63 1014.7
20260501230004 44 308 2.0 9.0 0.00 0.00 0.00 62 1014.6
20260501224506 45 344 1.0 8.0 0.00 0.00 0.00 63 1014.6
20260501223003 45 326 4.0 11.0 0.00 0.00 0.00 61 1014.6
20260501221505 46 9 4.0 12.0 0.00 0.00 0.00 60 1014.4
20260501220004 46 267 1.0 8.0 0.00 0.00 0.00 63 1014.4
20260501214509 45 336 3.0 8.0 0.00 0.00 0.00 60 1014.4
20260501213005 46 286 2.0 7.0 0.00 0.00 0.00 59 1014.2
20260501211512 47 338 2.0 9.0 0.00 0.00 0.00 58 1014.0
20260501210005 48 288 1.0 6.0 0.00 0.00 0.00 58 1013.8
20260501204505 49 257 2.0 10.0 0.00 0.00 0.00 57 1013.8
20260501201524 47 352 2.0 6.0 0.00 0.00 0.00 57 1013.8
20260501200012 48 294 5.0 10.0 0.00 0.00 0.00 51 1013.6
20260501194518 49 17 4.0 10.0 0.00 0.00 0.00 54 1013.5
20260501193019 49 271 2.0 9.0 0.00 0.00 0.00 53 1013.5
20260501191524 48 311 1.0 11.0 0.00 0.00 0.00 54 1013.4